When you browse on this site, cookies collect data to enhance your experience and personalize the content and advertising you see.
Visit our Privacy Policy to learn more. By continuing to use the site, you agree to this use of cookies and data.
  • în România
  • Lista ţărilor
  • Pe 7 zile
  • Temperatura apei
  • Meteo pe hartă
  • Widget-uri
  • user-avatar
    Intrare

    Meteo pe oră la Hajdarabad

    Astăzi, 6 Iunie, Sâmbătă

    Timp Temperatura Precipitaţii Vânt Presiune Umiditate
    00:00 +33°C° 0 mm 8 m/s 747 mmHg 70%
    01:00 +32°C° 0 mm 8 m/s 746 mmHg 72%
    02:00 +32°C° 0 mm 8 m/s 746 mmHg 74%
    03:00 +32°C° 0 mm 7 m/s 746 mmHg 74%
    04:00 +32°C° 0 mm 7 m/s 746 mmHg 74%
    05:00 +32°C° 0 mm 4 m/s 746 mmHg 69%
    06:00 +32°C° 0 mm 5 m/s 747 mmHg 67%
    07:00 +33°C° 0 mm 6 m/s 747 mmHg 66%
    08:00 +33°C° 0 mm 7 m/s 747 mmHg 65%
    09:00 +35°C° 0 mm 7 m/s 747 mmHg 55%
    10:00 +39°C° 0 mm 6 m/s 747 mmHg 45%
    11:00 +41°C° 0 mm 6 m/s 747 mmHg 36%
    12:00 +42°C° 0 mm 6 m/s 746 mmHg 31%
    13:00 +45°C° 0 mm 6 m/s 746 mmHg 27%
    14:00 +46°C° 0 mm 7 m/s 745 mmHg 23%
    15:00 +46°C° 0 mm 7 m/s 745 mmHg 25%
    16:00 +45°C° 0 mm 7 m/s 744 mmHg 27%
    17:00 +44°C° 0 mm 8 m/s 744 mmHg 29%
    18:00 +41°C° 0 mm 8 m/s 744 mmHg 36%
    19:00 +39°C° 0 mm 8 m/s 745 mmHg 44%
    20:00 +37°C° 0 mm 8 m/s 745 mmHg 51%
    21:00 +35°C° 0 mm 8 m/s 745 mmHg 58%
    22:00 +34°C° 0 mm 9 m/s 746 mmHg 64%
    23:00 +33°C° 0 mm 9 m/s 746 mmHg 71%

    Mâine, 7 Iunie, Duminică

    Timp Temperatura Precipitaţii Vânt Presiune Umiditate
    00:00 +33°C° 0 mm 8 m/s 746 mmHg 71%
    01:00 +32°C° 0 mm 8 m/s 746 mmHg 72%
    02:00 +32°C° 0 mm 8 m/s 746 mmHg 73%
    03:00 +32°C° 0 mm 8 m/s 746 mmHg 74%
    04:00 +32°C° 0 mm 7 m/s 746 mmHg 75%
    05:00 +32°C° 0 mm 7 m/s 745 mmHg 75%
    06:00 +32°C° 0 mm 7 m/s 746 mmHg 72%
    07:00 +33°C° 0 mm 7 m/s 746 mmHg 68%
    08:00 +34°C° 0 mm 7 m/s 747 mmHg 65%
    09:00 +36°C° 0 mm 7 m/s 747 mmHg 56%
    10:00 +39°C° 0 mm 7 m/s 747 mmHg 48%
    11:00 +41°C° 0 mm 7 m/s 747 mmHg 39%
    12:00 +43°C° 0 mm 7 m/s 747 mmHg 34%
    13:00 +45°C° 0 mm 7 m/s 746 mmHg 30%
    14:00 +46°C° 0 mm 7 m/s 746 mmHg 25%
    15:00 +45°C° 0 mm 7 m/s 745 mmHg 27%
    16:00 +45°C° 0 mm 7 m/s 745 mmHg 28%
    17:00 +44°C° 0 mm 8 m/s 745 mmHg 30%
    18:00 +41°C° 0 mm 8 m/s 745 mmHg 37%
    19:00 +39°C° 0 mm 8 m/s 746 mmHg 45%
    20:00 +37°C° 0 mm 9 m/s 746 mmHg 53%
    21:00 +35°C° 0 mm 8 m/s 746 mmHg 57%
    22:00 +34°C° 0 mm 8 m/s 746 mmHg 62%
    23:00 +33°C° 0 mm 8 m/s 747 mmHg 67%

    Poimâine, 8 Iunie, Luni

    Timp Temperatura Precipitaţii Vânt Presiune Umiditate
    00:00 +33°C° 0 mm 8 m/s 747 mmHg 68%
    01:00 +32°C° 0 mm 8 m/s 747 mmHg 70%
    02:00 +32°C° 0 mm 8 m/s 747 mmHg 71%
    03:00 +32°C° 0 mm 8 m/s 747 mmHg 72%
    04:00 +32°C° 0 mm 7 m/s 746 mmHg 72%
    05:00 +32°C° 0 mm 7 m/s 746 mmHg 73%
    06:00 +32°C° 0 mm 7 m/s 747 mmHg 70%
    07:00 +33°C° 0 mm 8 m/s 747 mmHg 67%
    08:00 +34°C° 0 mm 8 m/s 747 mmHg 64%
    09:00 +35°C° 0 mm 8 m/s 747 mmHg 56%
    10:00 +38°C° 0 mm 8 m/s 747 mmHg 49%
    11:00 +40°C° 0 mm 8 m/s 747 mmHg 42%
    12:00 +41°C° 0 mm 8 m/s 747 mmHg 38%
    13:00 +44°C° 0 mm 8 m/s 746 mmHg 33%
    14:00 +45°C° 0 mm 8 m/s 746 mmHg 29%
    15:00 +44°C° 0 mm 8 m/s 746 mmHg 31%
    16:00 +44°C° 0 mm 9 m/s 745 mmHg 33%
    17:00 +43°C° 0 mm 9 m/s 745 mmHg 35%
    18:00 +40°C° 0 mm 9 m/s 745 mmHg 42%
    19:00 +38°C° 0 mm 9 m/s 746 mmHg 49%
    20:00 +35°C° 0 mm 9 m/s 746 mmHg 56%
    21:00 +34°C° 0 mm 9 m/s 747 mmHg 60%
    22:00 +34°C° 0 mm 9 m/s 747 mmHg 64%
    23:00 +33°C° 0 mm 9 m/s 747 mmHg 68%

    9 Iunie, Marţi

    Timp Temperatura Precipitaţii Vânt Presiune Umiditate
    00:00 +33°C° 0 mm 9 m/s 747 mmHg 69%
    01:00 +32°C° 0 mm 9 m/s 747 mmHg 70%
    02:00 +32°C° 0 mm 9 m/s 747 mmHg 71%
    03:00 +32°C° 0 mm 9 m/s 747 mmHg 72%
    04:00 +32°C° 0 mm 8 m/s 746 mmHg 73%
    05:00 +32°C° 0 mm 8 m/s 746 mmHg 74%
    06:00 +32°C° 0 mm 9 m/s 747 mmHg 71%
    07:00 +33°C° 0 mm 9 m/s 747 mmHg 68%
    08:00 +34°C° 0 mm 9 m/s 747 mmHg 66%
    09:00 +35°C° 0 mm 9 m/s 747 mmHg 60%
    10:00 +38°C° 0 mm 9 m/s 747 mmHg 55%
    11:00 +39°C° 0 mm 9 m/s 747 mmHg 49%
    12:00 +40°C° 0 mm 9 m/s 747 mmHg 46%
    13:00 +42°C° 0 mm 9 m/s 746 mmHg 43%
    14:00 +44°C° 0 mm 9 m/s 746 mmHg 40%
    15:00 +43°C° 0 mm 9 m/s 745 mmHg 41%
    16:00 +43°C° 0 mm 9 m/s 745 mmHg 42%
    17:00 +42°C° 0 mm 9 m/s 744 mmHg 43%
    18:00 +39°C° 0 mm 9 m/s 745 mmHg 50%
    19:00 +37°C° 0 mm 10 m/s 745 mmHg 56%
    20:00 +34°C° 0 mm 10 m/s 745 mmHg 63%
    21:00 +34°C° 0 mm 10 m/s 746 mmHg 66%
    22:00 +33°C° 0 mm 10 m/s 746 mmHg 70%
    23:00 +33°C° 0 mm 9 m/s 746 mmHg 73%

    10 Iunie, Miercuri

    Timp Temperatura Precipitaţii Vânt Presiune Umiditate
    00:00 +32°C° 0 mm 9 m/s 746 mmHg 73%
    01:00 +32°C° 0 mm 9 m/s 746 mmHg 74%
    02:00 +32°C° 0 mm 9 m/s 745 mmHg 74%
    03:00 +32°C° 0 mm 9 m/s 745 mmHg 74%
    04:00 +32°C° 0 mm 9 m/s 745 mmHg 74%
    05:00 +32°C° 0 mm 9 m/s 745 mmHg 75%
    06:00 +33°C° 0 mm 9 m/s 745 mmHg 72%
    07:00 +33°C° 0 mm 10 m/s 745 mmHg 69%
    08:00 +34°C° 0 mm 10 m/s 746 mmHg 66%
    09:00 +37°C° 0 mm 10 m/s 746 mmHg 60%
    10:00 +38°C° 0 mm 10 m/s 746 mmHg 54%
    11:00 +40°C° 0 mm 10 m/s 746 mmHg 49%
    12:00 +42°C° 0 mm 9 m/s 745 mmHg 45%
    13:00 +44°C° 0 mm 9 m/s 744 mmHg 41%
    14:00 +45°C° 0 mm 9 m/s 744 mmHg 37%
    15:00 +44°C° 0 mm 9 m/s 744 mmHg 40%
    16:00 +43°C° 0 mm 10 m/s 743 mmHg 42%
    17:00 +42°C° 0 mm 10 m/s 743 mmHg 44%
    18:00 +39°C° 0 mm 10 m/s 743 mmHg 52%
    19:00 +37°C° 0 mm 10 m/s 744 mmHg 60%
    20:00 +34°C° 0 mm 10 m/s 744 mmHg 68%
    21:00 +34°C° 0 mm 10 m/s 745 mmHg 69%
    22:00 +33°C° 0 mm 9 m/s 745 mmHg 70%
    23:00 +33°C° 0 mm 9 m/s 746 mmHg 71%

    11 Iunie, Joi

    Timp Temperatura Precipitaţii Vânt Presiune Umiditate
    00:00 +33°C° 0 mm 9 m/s 745 mmHg 71%
    01:00 +33°C° 0 mm 9 m/s 745 mmHg 71%
    02:00 +32°C° 0 mm 8 m/s 745 mmHg 71%
    03:00 +32°C° 0 mm 8 m/s 745 mmHg 72%
    04:00 +32°C° 0 mm 8 m/s 744 mmHg 72%
    05:00 +32°C° 0 mm 8 m/s 744 mmHg 72%
    06:00 +33°C° 0 mm 8 m/s 745 mmHg 70%
    07:00 +33°C° 0 mm 8 m/s 745 mmHg 67%
    08:00 +34°C° 0 mm 8 m/s 745 mmHg 64%
    09:00 +35°C° 0 mm 8 m/s 745 mmHg 59%
    10:00 +38°C° 0 mm 8 m/s 745 mmHg 53%
    11:00 +40°C° 0 mm 7 m/s 745 mmHg 47%
    12:00 +41°C° 0 mm 7 m/s 745 mmHg 42%
    13:00 +44°C° 0 mm 6 m/s 744 mmHg 37%
    14:00 +45°C° 0 mm 5 m/s 744 mmHg 31%
    15:00 +45°C° 0 mm 6 m/s 743 mmHg 32%
    16:00 +45°C° 0 mm 6 m/s 743 mmHg 33%
    17:00 +45°C° 0 mm 7 m/s 743 mmHg 34%
    18:00 +41°C° 0 mm 8 m/s 743 mmHg 42%
    19:00 +39°C° 0 mm 8 m/s 743 mmHg 50%
    20:00 +37°C° 0 mm 9 m/s 744 mmHg 58%
    21:00 +35°C° 0 mm 9 m/s 744 mmHg 63%
    22:00 +34°C° 0 mm 8 m/s 745 mmHg 69%
    23:00 +33°C° 0 mm 8 m/s 746 mmHg 74%
    Arată mai mult